Чёрный Кут

Украина / Одесская область     47°23′36″N   30°27′27″E
темп.,
°C
ветер,
м/с
пор.,
м/с
влажн.,
%
обл.,
%
осадки,
мм/ч
давл.,
гПа
погр.,
м
1 марта, пн
пн123:00+1зсз3696100 0.1 1024325
02:00+1зсз2497100 0.7 1024190
05:00+1сз1298100 0.1 1024106
08:00+1ссв4696100 0.1 1025364
11:00+2ссв4688100 0.0 1028531
14:00+3с5684100 0.1 1029618
17:00+2с4690100 0.1 1030429
20:00+1с378798 0.1 1032313
2 марта, вт
вт223:00+1ссз3585100 0.1 1033194
02:00+1сз2383100 0.1 103390
05:00+1зсз237996 0.0 103177
08:00+1з478363 0.0 1031258
11:00+6з686626 0.0 1029746
14:00+9з796055 0.0 1027746
17:00+8з6116767 0.0 1024664
20:00+6зсз6147633 0.0 1023439
3 марта, ср
ср323:00+5сз6137722 0.0 1023440
02:00+4ссз6138324 0.0 1024694
05:00+3с71175100 0.0 1026915
08:00+3ссз6117079 0.0 1028748
11:00+6с68590 0.0 10291063
14:00+8ссз56500 0.0 10281136
17:00+7ссз35540 0.0 1028433
20:00+4сз12650 0.0 102922
4 марта, чт
чт423:00+3юз22700 0.0 102822
02:00+1ююз337624 0.0 102735
05:00+1юз34780 0.0 102458
08:00+2ююз49710 0.0 1023306
11:00+8ююз69610 0.0 1020709
14:00+11ююз710580 0.0 1017951
17:00+10ююз510640 0.0 1015447
20:00+6ююз49809 0.0 1014168
5 марта, пт
пт523:00+4зюз34871 0.0 101477
02:00+4ююз22800 0.0 101322
05:00+3ююз12800 0.0 101322
08:00+4ю22790 0.0 101260
11:00+10ююз355750 0.0 1011401
14:00+14ююз464575 0.0 1010789
17:00+12ююз235284 0.0 100850
20:00+8зюз336472 0.0 100926